Date String (YYYY-MM-DD hh:mm:ss) UTC,Instrument flags,absolute air pressure of the measurement (hPa),sample flow rate (lpm),inlet stack bypass flow (lpm),air temperature of the measurement (°C),ambient temperature measured by the external sensor (°C),aerosol sample conditioner tube jacket temperature (°C),OPC LED temperature (°C),internal box temperature (°C),relative humidity of the measurement (%),span deviation,mass concentration of particles derived from Lorenz-Mie calculation of OPC scattering (μg/m³),mass concentration of particles derived from Lorenz-Mie calculation of OPC scattering (μg/m³),mass concentration of particles derived from Lorenz-Mie calculation of OPC scattering (μg/m³)
DateTimeUTC,F1_M11,P_M11,Q1_M11,Q2_M11,T1_M11,T2_M11,T3_M11,T4_M11,T5_M11,U1_M11,ZSPAN_M11,X2_M11,X0_M11,X1_M11
2023-11-10 08:00:00,SystemResetWarning,0832.2,5.00,000.00,021.9,020.7,000.0,030.3,023.2,10.6,0000.0,0003.32,0006.21,0002.73
2023-11-10 08:01:00,SystemResetWarning,0832.2,5.01,000.00,021.9,020.7,000.0,030.3,023.2,10.6,0000.0,0003.29,0005.62,0002.73
2023-11-10 08:02:00,SystemResetWarning,0832.2,5.00,000.00,021.9,020.8,000.0,030.3,023.2,10.6,0000.0,0003.29,0005.71,0002.70
2023-11-10 08:03:00,SystemResetWarning,0832.2,5.00,000.00,021.9,020.7,000.0,030.3,023.2,10.6,0000.0,0003.30,0005.82,0002.68
2023-11-10 08:04:00,SystemResetWarning,0832.2,5.00,000.00,021.8,020.7,000.0,030.3,023.2,10.6,0000.0,0003.27,0005.79,0002.66
2023-11-10 08:05:00,SystemResetWarning,0832.2,4.99,000.00,021.8,020.7,000.0,030.3,023.2,10.6,0000.0,0003.24,0005.64,0002.64
2023-11-10 08:06:00,SystemResetWarning,0832.2,4.99,000.00,021.8,020.7,000.0,030.3,023.2,10.5,0000.0,0003.24,0005.57,0002.62
2023-11-10 08:07:00,SystemResetWarning,0832.2,4.99,000.00,021.8,020.7,000.0,030.3,023.1,10.5,0000.0,0003.22,0005.50,0002.60
2023-11-10 08:08:00,SystemResetWarning,0832.2,5.00,000.00,021.8,020.7,000.0,030.3,023.1,10.6,0000.0,0003.21,0005.46,0002.60
2023-11-10 08:09:00,SystemResetWarning,0832.2,5.00,000.00,021.8,020.7,000.0,030.3,023.1,10.6,0000.0,0003.23,0005.70,0002.58
2023-11-10 08:10:00,SystemResetWarning,0832.2,5.00,000.00,021.8,020.7,000.0,030.3,023.1,10.6,0000.0,0003.21,0005.77,0002.55
2023-11-10 08:11:00,SystemResetWarning,0832.2,5.00,000.00,021.8,020.7,000.0,030.3,023.0,10.6,0000.0,0003.21,0005.66,0002.53
2023-11-10 08:12:00,SystemResetWarning,0832.2,4.99,000.00,021.8,020.6,000.0,030.2,023.0,10.6,0000.0,0003.20,0005.48,0002.50
2023-11-10 08:13:00,SystemResetWarning,0832.2,5.00,000.00,021.7,020.6,000.0,030.2,023.1,10.6,0000.0,0003.20,0005.49,0002.49
2023-11-10 08:14:00,SystemResetWarning,0832.2,5.00,000.00,021.7,020.6,000.0,030.2,023.1,10.5,0000.0,0003.18,0005.37,0002.48
2023-11-10 08:15:00,SystemResetWarning,0832.2,5.00,000.00,021.7,020.6,000.0,030.2,023.0,10.5,0000.0,0003.16,0005.26,0002.46
2023-11-10 08:16:00,SystemResetWarning,0832.2,5.00,000.00,021.7,020.6,000.0,030.2,023.0,10.5,0000.0,0003.14,0005.12,0002.45
2023-11-10 08:17:00,SystemResetWarning,0832.2,5.00,000.00,021.7,020.6,000.0,030.2,023.1,10.5,0000.0,0003.12,0005.18,0002.43
2023-11-10 08:18:00,SystemResetWarning,0832.2,4.99,000.00,021.7,020.6,000.0,030.2,023.0,10.5,0000.0,0003.11,0005.21,0002.41
2023-11-10 08:19:00,SystemResetWarning,0832.1,5.00,000.00,021.7,020.6,000.0,030.2,023.1,10.4,0000.0,0003.11,0005.23,0002.38
2023-11-10 08:20:00,SystemResetWarning,0832.1,5.00,000.00,021.7,020.6,000.0,030.2,023.0,10.4,0000.0,0003.11,0005.07,0002.39
2023-11-10 08:21:00,SystemResetWarning,0832.0,5.00,000.00,021.7,020.6,000.0,030.2,023.0,10.4,0000.0,0003.10,0005.26,0002.41
2023-11-10 08:22:00,SystemResetWarning,0832.0,5.01,000.00,021.7,020.6,000.0,030.2,023.0,10.4,0000.0,0003.05,0006.50,0002.39
2023-11-10 08:23:00,SystemResetWarning,0832.0,5.01,000.00,021.7,020.6,000.0,030.2,023.0,10.3,0000.0,0003.03,0006.48,0002.39
2023-11-10 08:24:00,SystemResetWarning,0832.1,5.00,000.00,021.7,020.6,000.0,030.1,023.1,10.3,0000.0,0003.01,0006.40,0002.39
2023-11-10 08:25:00,SystemResetWarning,0832.0,5.00,000.00,021.7,020.6,000.0,030.1,023.0,10.4,0000.0,0002.98,0006.43,0002.36
2023-11-10 08:26:00,SystemResetWarning,0832.0,4.99,000.00,021.7,020.6,000.0,030.1,023.0,10.6,0000.0,0002.95,0006.32,0002.35
2023-11-10 08:27:00,SystemResetWarning,0832.0,5.00,000.00,021.7,020.6,000.0,030.1,023.0,10.5,0000.0,0002.94,0006.31,0002.33
2023-11-10 08:28:00,SystemResetWarning,0832.0,5.00,000.00,021.7,020.6,000.0,030.1,023.0,10.4,0000.0,0002.92,0006.64,0002.32
2023-11-10 08:29:00,SystemResetWarning,0832.0,5.00,000.00,021.7,020.6,000.0,030.1,023.0,10.4,0000.0,0002.92,0006.69,0002.33
2023-11-10 08:30:00,SystemResetWarning,0832.0,5.00,000.00,021.7,020.6,000.0,030.1,023.0,10.4,0000.0,0002.91,0006.69,0002.32
2023-11-10 08:31:00,SystemResetWarning,0832.0,5.01,000.00,021.7,020.6,000.0,030.1,023.0,10.4,0000.0,0002.92,0006.81,0002.30
2023-11-10 08:32:00,SystemResetWarning,0832.0,5.01,000.00,021.6,020.6,000.0,030.1,023.0,10.6,0000.0,0002.90,0006.78,0002.27
2023-11-10 08:33:00,SystemResetWarning,0832.0,5.00,000.00,021.6,020.6,000.0,030.1,023.0,10.5,0000.0,0002.90,0004.98,0002.25
2023-11-10 08:34:00,SystemResetWarning,0832.0,5.00,000.00,021.6,020.6,000.0,030.1,023.0,10.5,0000.0,0002.92,0004.99,0002.25
2023-11-10 08:35:00,SystemResetWarning,0832.1,4.99,000.00,021.6,020.6,000.0,030.1,023.0,10.4,0000.0,0002.88,0004.90,0002.24
2023-11-10 08:36:00,SystemResetWarning,0832.0,5.00,000.00,021.6,020.5,000.0,030.1,023.0,10.7,0000.0,0002.84,0004.69,0002.24
2023-11-10 08:37:00,SystemResetWarning,0832.0,5.00,000.00,021.6,020.5,000.0,030.1,022.9,10.9,0000.0,0002.88,0004.87,0002.25
2023-11-10 08:38:00,SystemResetWarning,0832.0,5.01,000.00,021.6,020.5,000.0,030.1,022.9,11.1,0000.0,0002.88,0004.91,0002.23
2023-11-10 08:39:00,SystemResetWarning,0832.0,5.01,000.00,021.6,020.5,000.0,030.1,022.9,11.1,0000.0,0002.88,0004.55,0002.23
2023-11-10 08:40:00,SystemResetWarning,0832.0,5.01,000.00,021.6,020.5,000.0,030.1,022.9,11.5,0000.0,0002.87,0004.36,0002.23
2023-11-10 08:41:00,SystemResetWarning,0832.0,4.99,000.00,021.6,020.5,000.0,030.0,022.9,11.6,0000.0,0002.87,0004.31,0002.22
2023-11-10 08:42:00,SystemResetWarning,0832.1,4.99,000.00,021.6,020.5,000.0,030.0,022.9,11.6,0000.0,0002.83,0004.17,0002.24
2023-11-10 08:43:00,SystemResetWarning,0832.0,5.00,000.00,021.6,020.5,000.0,030.0,022.9,11.4,0000.0,0002.87,0004.15,0002.30
2023-11-10 08:44:00,SystemResetWarning,0832.0,5.01,000.00,021.6,020.5,000.0,030.0,022.9,11.6,0000.0,0003.04,0005.43,0002.42
2023-11-10 08:45:00,SystemResetWarning,0832.0,5.01,000.00,021.6,020.5,000.0,030.0,022.9,11.7,0000.0,0003.15,0006.07,0002.55
2023-11-10 08:46:00,SystemResetWarning,0832.0,5.00,000.00,021.6,020.5,000.0,030.0,022.9,12.0,0000.0,0003.24,0006.49,0002.65
2023-11-10 08:47:00,SystemResetWarning,0832.0,5.00,000.00,021.5,020.5,000.0,030.0,022.9,12.0,0000.0,0003.31,0007.11,0002.73
2023-11-10 08:48:00,SystemResetWarning,0832.0,5.00,000.00,021.5,020.5,000.0,030.0,022.9,11.7,0000.0,0003.38,0007.40,0002.84
2023-11-10 08:49:00,SystemResetWarning,0832.0,5.00,000.00,021.5,020.4,000.0,030.0,022.9,11.6,0000.0,0003.49,0007.57,0003.01
2023-11-10 08:50:00,SystemResetWarning,0832.0,5.00,000.00,021.5,020.4,000.0,030.0,022.9,11.6,0000.0,0003.59,0007.73,0003.13
2023-11-10 08:51:00,SystemResetWarning,0832.0,5.00,000.00,021.5,020.4,000.0,030.0,022.8,11.5,0000.0,0003.71,0008.10,0003.23
2023-11-10 08:52:00,SystemResetWarning,0831.9,5.00,000.00,021.5,020.4,000.0,030.0,022.9,11.5,0000.0,0003.78,0008.38,0003.31
2023-11-10 08:53:00,SystemResetWarning,0831.9,5.01,000.00,021.5,020.4,000.0,030.0,022.8,11.6,0000.0,0003.88,0008.50,0003.37
2023-11-10 08:54:00,SystemResetWarning,0831.8,5.00,000.00,021.5,020.4,000.0,030.0,022.8,11.4,0000.0,0003.94,0008.56,0003.44
2023-11-10 08:55:00,SystemResetWarning,0831.8,5.00,000.00,021.5,020.4,000.0,030.0,022.8,11.5,0000.0,0003.91,0008.17,0003.45
2023-11-10 08:56:00,SystemResetWarning,0831.8,4.99,000.00,021.5,020.4,000.0,029.9,022.8,11.5,0000.0,0003.91,0008.32,0003.45
2023-11-10 08:57:00,SystemResetWarning,0831.8,4.99,000.00,021.5,020.4,000.0,029.9,022.8,11.4,0000.0,0003.91,0008.54,0003.46
2023-11-10 08:58:00,SystemResetWarning,0831.8,5.00,000.00,021.5,020.4,000.0,029.9,022.8,11.5,0000.0,0003.95,0008.51,0003.49
2023-11-10 08:59:00,SystemResetWarning,0831.8,5.00,000.00,021.5,020.4,000.0,029.9,022.8,11.9,0000.0,0003.96,0008.27,0003.50
